DELTA 1 DEB, 7038

Orbit data source: Space-Track

DELTA 1 DEB, 7038 is space debris in SSO originally from a launch on Tue, 06 Nov 1973 UTC launched from the Air Force Western Test Range (AFWTR). Debris objects in space refer to the collection of defunct objects orbiting the Earth. Examples of debris include non-operational satellites, rocket bodies, and fragments generated from explosions, collisions, or faulty payload assembly.

Loading next visibility...
Identifier
7038, 1973-086AE
Orbit
SSO
Country
Flag of USUS
Related business
Manufacturer
Unknown
Mission
Spacecraft
Bus & Motor
Unknown
Mass
Unknown
Launch date (UTC)
1973-11-06 (52 years ago)
Launch vehicle
Unknown
Launch site
Air Force Western Test Range (AFWTR)
Object type
Payload
Rocket body
Debris
Shape & HBR
Unknown
Radar Cross Section
Medium (>0.1 m² and <1 m²)

Expand to show TLE details & history
Last TLE update: 21 hours ago

TLE from 21 hours ago
0 DELTA 1 DEB
1 07038U 73086AE  25260.01839456  .00000030  00000-0  64941-3 0  9993
2 07038 101.8984  94.0885 0128749 279.0650 237.6047 12.24378268313071
Epoch: 2025-09-17T00:26Z
TLE epoch observation values (Epoch: 2025-09-17T00:26:29.289Z)
Latitude
24.02736°
Longitude
-83.37006°
Altitude
1,631.886 km
Speed
7.033 km/s
True Right ascension
18h 37m 48s
True Declination
23° 54' 49"
Sunlit
Object was in daylight at epoch
Visualization orbit readout
Latitude
Unknown
Longitude
Unknown
Altitude
Unknown
Speed
Unknown
Apparent Right ascension
Unknown
Apparent Declination
Unknown
Sunlit
N/A
Visualization observer readout
Local Sidereal Time
13:59:30
Azimuth
Unknown
Elevation
Unknown
Doppler factor
Unknown
Orbital elements
Apogee altitude
1,673.463 km
Perigee altitude
1,468.771 km
Semi-major axis
7,949.254 km
Eccentricity
0.01287
Inclination
101.8984°
RAAN
94.0885°
Arg. of periapsis
279.065°
True anomaly
236.3697°
Mean anomaly
237.6047°
Eccentric anomaly
236.98613°
Mean motion
3.06234 °/min
Orbital period
117.56 mins
BSTAR
0.00064941
Loading maneuver chart data...
Computing Atmospheric mass density...
Loading historical data...
Loading historical data...
Loading historical data...
Loading historical data...
Loading historical data...
Loading historical data...
Loading historical data...

Documentation

Showing up to 5 results
|